Flag for Romania Weather past 2 weeks in Târgu Mureş, Romania

Now
57 °F

Scattered clouds.


Feels Like: 55 °F
Forecast: 52 / 62 °F
Wind: 9 mph from Northeast

Location: Tirgu Mures Airport

Current Time: Oct 2, 2014 at 9:50:36 AM

Latest Report: Oct 2, 2014 at 9:30 AM


Visibility: 4 mi

Pressure: 30.30 "Hg

Humidity: 94%

Dew point: 55 °F

Location of Târgu MureşLocation

Historic Weather in Târgu Mureş — Graph

°F

Târgu Mureş temperature yesterday

Maximum temperature yesterday: 73 °F (at 3:30 PM)
Minimum temperature yesterday: 39 °F (at 7:00 AM)
Average temperature yesterday: 56 °F

Past Weeks' High & Low Weather Summary

 TemperatureHumidityPressure
High77 °F (Sep 19, 4:30 PM)100% (Sep 21, 3:00 AM)30.48 "Hg (Sep 21, 3:00 AM)
Low32 °F (Sep 25, 7:30 AM)25% (Sep 18, 3:30 PM)29.71 "Hg (Sep 22, 2:30 PM)
Average57 °F73%30.12 "Hg
* Reported Sep 17 8:00 AM — Oct 2 8:30 AM, Târgu Mureş, Weather by CustomWeather, © 2014

Note: Actual official high and low records may vary slightly from our data, if they occured in-between our weather recording intervals... More about our weather records

Advertising

Târgu Mureş weather history for previous 24 hours

 ConditionsComfort  
Time TempWeatherWind HumidityBarometerVisibility
8:30 AM
Oct 2
57 °FDrizzle. Fog.5 mph94%30.30 "Hg3 mi
8:00 AM55 °FLight rain. Fog.2 mph100%30.30 "Hg3 mi
7:30 AM55 °FLight rain. Fog.7 mph100%30.27 "Hg3 mi
7:00 AM55 °FLight rain. Clear.2 mph94%30.27 "Hg4 mi
6:30 AM55 °FClear.7 mph94%30.27 "Hg5 mi
6:00 AM55 °FClear.5 mph100%30.27 "Hg5 mi
5:30 AM57 °FClear.7 mph94%30.27 "Hg5 mi
5:00 AM55 °FClear.5 mph94%30.27 "Hg5 mi
4:00 AM55 °FLight rain. Clear.2 mph94%30.27 "Hg5 mi
3:00 AM55 °FClear.2 mph94%30.27 "Hg10 mi
2:00 AM55 °FClear.No wind94%30.27 "Hg10 mi
1:00 AM55 °FClear.No wind94%30.27 "Hg10 mi
12:00 AM55 °FClear.No wind88%30.27 "Hg10 mi
11:00 PM
Oct 1
55 °FClear.No wind94%30.27 "Hg10 mi
10:00 PM57 °FClear.No wind88%30.24 "Hg10 mi
9:00 PM57 °FClear.2 mph82%30.24 "Hg10 mi
8:30 PM57 °FClear.2 mph82%30.24 "Hg10 mi
8:00 PM59 °FSunny.No wind77%30.24 "Hg10 mi
7:30 PM63 °FSunny.No wind73%30.24 "Hg10 mi
7:00 PM64 °FSunny.No wind68%30.24 "Hg10 mi
6:30 PM68 °FSunny.2 mph60%30.24 "Hg10 mi
6:00 PM70 °FSunny.2 mph60%30.24 "Hg10 mi
5:30 PM72 °FSunny.2 mph50%30.24 "Hg10 mi
5:00 PM72 °FSunny.No wind47%30.24 "Hg10 mi
4:30 PM72 °FSunny.2 mph47%30.24 "Hg10 mi
4:00 PM72 °FSunny.2 mph47%30.24 "Hg10 mi
3:30 PM73 °FSunny.2 mph44%30.24 "Hg10 mi
3:00 PM72 °FPassing clouds.5 mph47%30.24 "HgN/A
2:30 PM70 °FSunny.5 mph50%30.27 "Hg10 mi
2:00 PM70 °FSunny.2 mph53%30.27 "Hg10 mi
1:30 PM68 °FSunny.2 mph56%30.27 "Hg10 mi
1:00 PM66 °FSunny.2 mph56%30.30 "Hg10 mi
12:30 PM64 °FSunny.2 mph60%30.30 "Hg10 mi
12:00 PM64 °FPassing clouds.No wind64%30.30 "Hg6 mi
11:30 AM61 °FPassing clouds.2 mph68%30.30 "Hg4 mi
11:00 AM59 °FFog.5 mph77%30.30 "Hg3 mi
10:30 AM55 °FPassing clouds.2 mph82%30.30 "Hg5 mi
10:00 AM52 °FPassing clouds.2 mph88%30.30 "Hg6 mi
9:30 AM50 °FPassing clouds.2 mph88%30.30 "Hg6 mi
9:00 AM46 °FPassing clouds.5 mph93%30.30 "Hg4 mi
Weather by CustomWeather, © 2014

See weather overviewHow to use our weather pages